sat.trackr.live / text

‹ back to catalog

GSAT0102 (GALILEO-FM2)

NORAD 37847 · 2011-060B

PAYLOAD ACTIVE UNKNOWN

§ Identity

Operator
Country
ESA
Launch date
2011-10-21
Launch site
FRGUI
Launch vehicle
Mass (kg)
RCS (m²)
20.11

Purposes: earth_obs, nav

External: N2YO · Heavens-Above · Gunter

§ Orbital elements

Epoch: 2026-05-24T21:27:21.877344Z

Period
844.69 min
Inclination
57.0043°
Eccentricity
0.0003903
Mean motion
1.70475962 rev/d
Perigee alt
23,210.4 km
Apogee alt
23,233.5 km
Semi-major
29,600.1 km
B*
0.0000e+0
RAAN
342.3932°
Arg perigee
11.2637°
Mean anomaly
346.7410°
Rev number
9,072

§ Raw data

GSAT0102 (GALILEO-FM2)1 37847U 11060B   26144.89400321 -.00000090  00000+0  00000+0 0  99992 37847  57.0043 342.3932 0003903  11.2637 346.7410  1.70475962 90725

JSON: /api/v1/satellites/37847 · /tle

For live sub-satellite position, see the globe view (requires WebGL).

§ Visibility from observer

Set your observer location to see the next 7 days of passes ≥ 10°. The values pass through the URL so the page stays shareable.

No JS? Fill the form by hand. The geolocation button needs JavaScript.